Location: Ash Swamp
(41.5170°N, 74.6157°W)
Time: 01:43:34
(UTC+00:00)

Cosmos 2184 Rocket - Pass Details

Date: 14 July 2020
Orbit: 960 x 1001 km, 82.9° (Epoch: 14 August)

Event Time Altitude Azimuth Distance (km) Brightness Sun altitude
Exits shadow 01:57:32 10° 174° (S) 2,745 5.9 -13.5°
Reaches altitude 10° 01:57:36 10° 174° (S) 2,719 5.9 -13.5°
Maximum altitude 02:03:46 67° 94° (E) 1,064 4.0 -14.3°
Drops below altitude 10° 02:10:03 10° 13° (NNE) 2,765 6.9 -15.1°
Sets 02:12:37 0° 11° (N) 3,723 7.6 -15.4°
